{"data":{"norad_id":57135,"intl_designator":"2023-090AL","name":"STARLINK-6127","alt_names":[],"object_type":"PAYLOAD","status":"ACTIVE","operator":null,"country":"US","launch_date":"2023-06-23","launch_site_code":"AFETR","launch_vehicle":null,"mission":null,"orbit_class":"UNKNOWN","rcs_meters":null,"size_class":null,"mass_kg":null,"dimensions":null,"purposes":["comms"],"wikipedia_slug":null,"has_3d_model":false,"image_url":null,"decayed_at":null,"tle_current":{"epoch":"2026-05-25T04:15:40.827168Z","epoch_age_seconds":55916,"freshness":"FRESH","line1":"1 57135U 23090AL  26145.17755587 -.00002327  00000+0 -75082-4 0  9999","line2":"2 57135  43.0003 191.1793 0001486 283.9873  76.0813 15.27577994162058","mean_motion":15.27577994,"eccentricity":0.0001486,"inclination_deg":43.0003,"raan_deg":191.1793,"arg_perigee_deg":283.9873,"mean_anomaly_deg":76.0813,"bstar":-7.5082e-5,"rev_number":16205,"period_min":94.266872503794,"perigee_km":482.03552958541,"apogee_km":484.07467587835,"semimajor_km":6861.1921027319,"source":"CELESTRAK","updated_at":"2026-05-25T13:38:18.246546Z"}}}